Tracking 28096 objects as of 29-Sep-2023
HD Live streaming from Space Station
objects crossing your sky now

SPACEBEE-154

Track SPACEBEE-154 now!
10-day predictions


NORAD ID: 52417
Int'l Code: 2022-047Z
Perigee: 471.0 km
Apogee: 478.6 km
Inclination: 97.4 °
Period: 93.9 minutes
Semi major axis: 6845 km
RCS: Unknown
Launch date: May 2, 2022
Source: United States (US)
Launch site: Rocket Lab Launch Complex (RLLC)
Your satellite tracking list
Your tracking list is empty




NASA's NSSDC Master Catalog

Two Line Element Set (TLE):
1 52417U 22047Z   23271.80454295  .00038709  00000-0  12216-2 0  9997
2 52417  97.4149 355.0642 0005522 346.2990  13.8101 15.32735425 79510
Source of the keplerian elements: AFSPC